SCP
0 0 0 0 0 0 0 0 0 0 0 0 0 0 0 0 0 0 0 0 0 0 0 0 0 0 0 0 0 0 0 0 0 0 0 0 0 0 0 0 0 0 0
0 0 0 0 0 0 0 0 0 0 0 0 0 0 0 0 0 0 0 0 0 0 0 0 0 0 0 0 0 0 0 0 0 0 0 0 0 0 0 0 0 0 0
0 0 0 0 0 0 0 0 0 0 0 0 0 0 0 0 0 0 0 0 0 0 0 0 0 0 0 0 0 0 0 0 0 0 0 0 0 0 0 0 0 0 0
0 0 0 0 0 0 0 0 0 0 0 0 0 0 0 0 0 0 0 0 0 0 0 0 0 0 0 0 0 0 0 0 0 0 0 0 0 0 0 0 0 0 0
0 0 0 0 0 0 0 0 0 0 0 0 0 0 0 0 0 0 0 0 0 0 0 0 0 0 0 0 0 0 0 0 0 0 0 0 0 0 0 0 0 0 0
0 0 0 0 0 0 0 0 0 0 0 0 0 0 0 0 0 0 0 0 0 0 0 0 0 0 0 0 0 0 0 0 0 0 0 0 0 0 0 0 0 0 0
0 0 0 0 0 0 0 0 0 0 0 0 0 0 0 0 0 0 0 0 0 0 0 0 0 0 0 0 0 0 0 0 0 0 0 0 0 0 0 0 0 0 0
0 0 0 0 0 0 0 0 0 0 0 0 0 0 0 0 0 0 0 0 0 0 0 0 0 0 0 0 0 0 0 0 0 0 0 0 0 0 0 0 0 0 0
0 0 0 0 0 0 0 0 0 0 0 0 0 0 0 0 0 0 0 0 0 0 0 0 0 0 0 0 0 0 0 0 0 0 0 0 0 0 0 0 0 0 0
0 0 0 0 0 0 0 0 0 0 0 0 0 0 0 0 0 0 0 0 0 0 0 0 0 0 0 0 0 0 0 0 0 0 0 0 0 0 0 0 0 0 0
0 0 0 0 0 0 0 0 0 0 0 0 0 0 0 0 0 0 0 0 0 0 0 0 0 0 0 0 0 0 0 0 0 0 0 0 0 0 0 0 0 0 0
0 0 0 0 0 0 0 0 0 0 0 0 0 0 0 0 0 0 0 0 0 0 0 0 0 0 0 0 0 0 0 0 0 0 0 0 0 0 0 0 0 0 0
0 0 0 0 0 0 0 0 0 0 0 0 0 0 0 0 0 0 0 0 0 0 0 0 0 0 0 0 0 0 0 0 0 0 0 0 0 0 0 0 0 0 0
-0 -0 0 0 0 0 0 0 0 0 0 0 0 0 0 0 0 0 0 0 0 0 0 0 0 0 0 0 0 0 0 0 0 0 0 0 0 0 0 0 0 0 0
-0 -0 0 0 0 0 0 0 0 0 0 0 0 0 0 0 0 0 0 0 0 0 0 0 0 0 0 0 0 0 0 0 0 0 0 0 0 0 0 0 0 0 0
-0 -0 0 0 0 0 0 0 0 0 0 0 0 0 0 0 0 0 0 0 0 0 0 0 0 0 0 0 0 0 0 0 0 0 0 0 0 0 0 0 0 0 0
0 0 0 0 0 0 0 0 0 0 0 0 0 0 0 0 0 0 0 0 0 0 0 0 0 0 0 0 0 0 0 0 0 0 0 0 0 0 0 0 0 0 0
0 0 0 0 0 0 0 0 0 0 0 0 0 0 0 0 0 0 0 0 0 0 0 0 0 0 0 0 0 0 0 0 0 0 0 0 0 0 0 0 0 0 0
0 0 0 0 0 0 0 0 0 0 0 0 0 0 0 0 0 0 0 0 0 0 0 0 0 0 0 0 0 0 0 0 0 0 0 0 0 0 0 0 0 0 0
0 0 0 0 0 0 0 0 0 0 0 0 -0 -0 0 0 0 0 0 0 0 0 0 0 0 0 0 0 0 0 0 0 0 0 0 0 0 0 0 0 0 0 0
0 0 0 0 0 0 0 0 0 0 0 0 0 0 0 0 0 0 0 0 0 0 0 0 0 0 0 0 0 0 0 0 0 0 -0 -0 0 0 0 0 0 0 0
0 0 0 0 0 0 0 0 0 0 0 0 0 0 0 0 0 0 0 0 0 0 0 0 0 0 0 0 0 0 0 0 0 0 -0 -0 -0 0 0 0 0 0 0
0 0 0 0 0 0 0 0 0 0 0 0 0 0 0 0 0 0 0 0 0 0 0 0 0 0 0 0 0 0 0 0 0 0 0 0 -0 0 0 0 0 0 0
0 0 0 0 0 0 0 0 0 0 0 0 0 0 0 0 0 0 0 0 0 0 0 0 0 0 0 0 0 0 0 0 0 0 0 0 0 0 0 0 0 0 0
0 0 0 0 0 0 0 0 0 0 0 0 0 0 0 0 0 0 0 0 0 0 0 0 0 0 0 0 0 0 0 0 0 0 0 0 0 0 0 0 0 0 0
0 0 0 0 0 0 0 0 0 0 0 0 0 0 0 0 0 0 0 0 0 0 0 0 0 0 0 0 0 0 0 0 0 0 0 0 0 0 0 0 0 0 0
Wind_Speed
4 5 5 4 5 6 7 7 8 8 9 9 9 9 9 10 10 10 10 10 10 9 10 10 10 10 10 10 10 9 10 10 10 10 9 9 10 11 11 11 10 7 13
3 4 3 4 6 7 7 8 8 8 8 9 9 9 9 9 9 10 10 10 10 10 10 10 10 10 9 9 10 9 9 10 10 9 9 7 8 9 10 10 10 7 12
3 3 2 5 7 7 7 8 8 8 8 8 8 9 9 9 9 10 10 9 10 10 10 10 9 9 9 9 9 9 9 9 9 9 8 4 4 8 10 10 10 11 12
3 3 3 6 7 8 8 8 8 8 8 8 8 8 8 8 8 9 9 9 9 9 9 9 9 9 8 8 8 8 9 8 8 7 4 3 3 6 9 9 10 11 11
5 4 4 7 8 8 8 8 8 8 8 8 8 8 8 8 8 8 9 9 9 9 9 9 8 8 7 7 7 8 8 8 8 6 4 3 2 5 7 9 9 10 11
5 5 5 7 8 8 8 8 8 9 9 8 8 8 8 8 8 8 8 8 8 8 8 8 8 7 7 6 6 7 7 7 6 4 3 3 2 4 7 8 9 9 10
5 5 6 8 7 8 8 8 8 8 8 9 9 8 8 8 8 8 8 8 8 8 8 8 8 8 7 6 6 7 7 6 4 3 3 2 2 4 6 7 8 9 10
5 5 6 8 8 8 8 8 8 9 9 9 9 9 9 8 8 8 8 8 8 8 8 8 7 8 7 7 6 7 7 6 4 3 2 2 2 4 5 6 7 8 9
6 6 6 6 7 8 8 8 8 8 9 9 9 9 9 9 8 8 8 8 8 8 8 8 8 8 7 7 7 7 7 7 4 2 2 2 1 2 4 5 6 7 8
7 7 7 6 6 5 5 8 8 8 9 9 9 9 9 9 8 8 8 8 8 8 8 8 8 8 8 7 7 7 7 6 3 2 2 1 2 2 3 4 5 6 7
8 7 7 7 6 5 5 7 6 7 8 8 7 9 8 5 5 5 7 9 8 8 8 8 9 9 8 7 7 8 6 3 3 2 2 2 2 2 3 3 4 5 6
7 7 6 6 6 6 5 4 4 4 5 5 4 5 4 4 4 5 7 8 9 9 8 8 9 8 7 4 5 6 3 3 2 2 2 3 2 2 2 2 3 4 5
4 5 6 6 5 5 4 3 3 3 3 4 4 4 3 3 3 4 3 4 5 6 5 5 5 4 4 3 3 3 3 2 2 2 3 3 2 1 2 2 3 4 5
4 5 6 6 5 5 4 3 3 3 3 3 3 4 3 2 3 3 2 3 3 2 3 3 3 3 3 3 3 3 3 2 2 1 2 3 2 1 1 2 2 3 4
4 5 5 5 5 4 4 3 3 3 3 3 2 3 3 2 2 2 2 2 3 2 2 2 3 3 3 3 3 3 2 2 2 2 2 3 2 1 0 2 2 3 4
4 5 5 5 5 5 4 3 3 2 2 2 2 3 3 2 2 2 2 2 2 2 2 1 2 2 2 2 3 3 2 2 2 2 2 2 3 1 0 1 2 2 3
4 4 4 4 5 5 4 4 3 3 3 2 2 3 2 2 1 1 1 2 2 2 2 2 2 2 2 2 2 3 2 2 2 2 1 1 2 2 0 1 2 2 3
4 4 5 5 5 5 4 4 3 3 3 3 3 2 3 2 2 1 1 1 2 1 1 1 2 2 2 2 2 2 2 2 2 2 1 1 1 1 1 1 0 2 3
4 4 5 5 5 4 4 3 3 3 3 3 3 3 3 3 2 1 1 1 1 1 1 2 2 1 2 2 2 2 2 2 2 1 1 1 1 1 1 1 1 0 2
4 4 4 5 5 4 3 3 3 3 3 3 3 4 4 3 2 1 1 1 1 1 1 2 2 1 1 1 2 2 2 2 1 1 1 1 1 1 2 2 1 1 1
4 5 5 5 5 4 3 3 3 3 3 4 4 5 5 4 4 2 1 1 1 1 1 1 2 2 1 1 1 2 2 2 1 1 0 0 1 1 1 2 1 1 1
3 4 4 4 5 4 3 2 1 2 2 2 3 4 5 5 4 3 2 1 1 1 1 1 1 1 1 0 0 1 2 2 2 2 1 0 0 1 1 1 1 1 1
3 3 3 4 4 4 4 3 3 2 2 3 4 4 5 5 5 4 3 2 2 1 2 2 1 1 1 1 1 1 1 2 3 2 2 1 1 1 1 1 0 0 1
2 2 3 3 4 4 4 4 4 3 3 4 4 4 5 5 5 5 4 3 2 2 2 2 2 2 2 2 2 1 1 1 2 2 2 2 2 2 2 1 1 1 1
1 2 2 3 3 3 3 3 3 3 3 3 4 5 5 5 5 5 4 3 3 2 3 3 3 3 2 2 2 2 1 1 2 2 3 3 3 2 2 2 1 2 1
1 2 2 2 3 3 3 3 3 3 4 5 5 5 5 4 4 5 5 4 4 3 3 3 3 4 3 3 3 2 2 2 2 2 3 3 4 3 2 2 2 2 2
Wind_Direction
317 314 322 27 51 54 52 51 55 55 55 58 61 62 60 61 62 61 60 59 57 59 61 64 65 65 66 67 70 72 74 74 74 74 72 77 87 96 93 90 89 86 94
300 312 345 46 62 60 54 50 52 54 54 57 58 58 58 57 58 58 57 55 54 55 58 60 61 61 63 64 66 69 74 74 74 68 65 66 78 94 96 93 94 96 97
351 349 10 60 65 62 58 54 52 53 55 58 57 57 57 56 55 56 55 52 51 52 53 54 55 57 59 62 64 67 74 79 77 67 61 52 68 93 100 99 100 100 99
9 15 25 61 65 63 59 56 52 52 55 58 57 56 54 55 55 54 52 51 48 48 49 51 51 55 57 59 64 68 72 76 74 65 56 47 51 95 106 106 104 102 102
23 18 26 60 63 61 58 57 52 54 55 55 54 54 52 52 55 55 53 52 49 47 46 46 48 50 52 54 60 66 70 72 67 57 47 43 41 95 107 110 109 107 106
25 18 24 56 59 58 56 54 53 53 53 53 51 52 52 51 52 54 53 51 48 46 45 42 43 44 47 51 60 65 69 71 63 53 45 38 39 100 110 115 116 114 112
31 22 23 46 52 55 55 53 53 52 50 50 48 47 50 50 48 50 50 47 45 44 42 40 42 40 40 43 56 64 63 63 61 50 39 31 39 101 114 119 120 120 117
38 31 29 33 40 46 50 51 51 50 49 47 43 42 43 41 43 47 46 45 43 44 40 36 39 38 40 44 53 58 56 52 56 44 29 18 34 93 109 113 124 122 120
40 34 27 23 26 33 42 47 48 48 48 46 41 40 39 38 39 41 40 42 43 42 37 32 34 36 39 43 49 52 52 49 47 30 21 6 18 95 106 115 121 128 126
38 31 24 20 21 22 23 36 42 45 44 43 40 39 37 35 32 33 32 34 39 38 36 32 31 32 37 41 43 44 44 47 37 27 14 2 49 93 107 114 129 134 133
29 23 19 18 18 17 26 29 29 36 37 39 34 37 36 23 21 23 23 28 30 34 35 34 32 36 36 36 37 36 36 30 20 13 9 19 58 86 96 114 131 139 140
17 13 16 16 15 16 23 23 17 25 23 27 28 27 29 26 21 26 20 25 25 27 29 31 29 36 33 26 28 31 22 16 23 2 3 16 49 83 102 110 131 143 145
13 16 12 12 13 18 17 22 17 17 16 20 25 26 28 30 22 24 19 14 14 20 19 19 24 25 22 16 16 16 11 12 7 349 353 5 28 65 102 110 124 149 160
24 17 11 11 15 19 18 18 19 16 17 15 14 24 31 31 26 19 18 7 11 11 9 10 14 18 19 16 15 14 6 2 351 341 334 350 5 23 122 135 136 144 158
19 12 8 9 13 19 23 14 24 10 11 4 10 17 28 32 25 21 12 10 4 6 10 7 4 6 10 10 6 6 354 346 339 342 334 347 355 5 185 178 159 152 160
8 3 5 13 11 19 22 13 7 1 2 8 10 3 11 24 27 21 13 8 3 357 360 5 354 353 352 357 359 351 343 342 338 337 337 342 350 356 112 183 174 163 165
3 1 9 15 15 17 13 7 8 359 1 1 358 353 2 17 19 22 18 3 354 352 358 7 7 5 1 358 352 342 340 337 333 336 336 341 336 342 31 190 191 172 174
11 12 14 17 17 13 9 2 1 2 1 354 347 347 350 357 6 21 19 345 346 353 3 2 15 6 354 345 336 328 327 325 327 325 333 351 346 345 2 55 123 181 182
15 13 16 14 13 8 3 1 3 4 2 352 351 346 341 341 351 5 350 341 346 354 358 355 7 5 336 333 322 322 317 309 306 316 332 343 359 349 353 11 5 202 183
20 18 18 15 9 6 3 4 5 7 1 355 352 351 347 340 339 342 338 341 350 353 353 358 348 349 306 317 318 322 311 298 293 282 285 341 16 17 27 21 7 332 181
20 18 14 13 5 10 3 1 358 347 343 348 348 350 348 344 335 327 330 323 323 308 310 341 351 337 342 353 354 333 321 309 300 303 297 31 27 25 45 33 23 22 352
14 8 9 7 4 7 358 340 329 322 325 328 335 344 346 346 340 331 318 307 290 289 305 315 346 333 315 355 15 319 324 323 326 319 289 252 302 349 22 11 39 48 16
4 357 2 2 5 6 4 0 0 358 343 352 346 342 342 342 343 329 322 312 288 260 256 264 243 238 280 270 230 185 216 265 314 297 288 281 277 270 287 331 346 7 355
329 347 358 2 9 8 14 21 21 7 346 329 325 323 328 335 337 330 326 319 309 285 259 250 242 244 226 256 272 260 238 219 244 296 295 291 278 259 252 269 286 249 261
333 348 349 2 10 11 17 21 21 5 337 324 328 330 329 329 331 328 323 315 302 293 278 259 247 243 234 238 243 263 270 266 228 236 266 285 297 274 259 245 250 242 229
349 356 357 1 1 6 13 11 14 355 340 337 334 333 330 327 325 327 321 315 307 294 276 268 252 245 244 245 243 244 241 239 236 231 249 265 277 283 279 255 236 233 210